Notices

What's New in latest Release from April 7th, 2021:

- Updated Glossary, including Speed of Maximum Gust, and Total Hourly Precipitation

- Updated national and regional climate services offices contacts and prices information

- Addition of station inventory lists for 1981-2010, 1971-2000, and 1961-1990 Normals.

If you haven't already, please take our survey and provide feedback about our website: https://eccc.sondage-survey.ca/f/LanguageSelection.aspx?s=442ca660-fcf1-47c0-95a9-59707d6fd709

Hourly Data Report for April 22, 2021

CLYDE RIVER A
NUNAVUT
Current Station Operator: NAVCAN

70°29'09.000" N
68°31'01.000" W
26.50 m
2400804
71090
YCY

Download Data

Hourly Data (April 2021)
Hourly Data Report for April 22, 2021
TIME
LST
Temp Definition
°C
Dew Point Definition
°C
Rel Hum Definition
%
Precip. Amount Definition
mm

Wind Dir Definition
10's deg

Wind Spd Definition
km/h
Visibility Definition
km
Stn Press Definition
kPa
Hmdx Definition


Wind Chill Definition


Weather Definition


00:00 -11.2 -13.3 85 0.0 22 22 6.4 100.14   -20 Snow
01:00 -11.2 -13.5 83 0.0 21 28 6.4 100.12   -21 Snow
02:00 -12.2 -14.4 84 0.0 21 22 16.1 100.23   -21 LegendNANA
03:00 -11.5 -14.3 80 0.0 22 34 3.6 100.26   -22 Snow
04:00 -10.5 -13.2 81 0.0 24 39 2.8 100.25   -21 Haze
05:00 -11.2 -13.3 85 0.0 24 39 1.2 100.31   -22 Snow
06:00 -10.1 -13.4 77 0.0 20 18 16.1 100.38   -18 LegendNANA
07:00 -9.7 -13.5 74 0.0 22 11 16.1 100.46   -15 LegendNANA
08:00 -9.5 -13.8 71 0.0 21 34 12.9 100.47   -19 LegendNANA
09:00 -7.9 -13.3 65 0.0 LegendMM 8 16.1 100.55   -12 LegendNANA
10:00 -8.8 -13.0 72 0.0 36 15 14.5 100.59   -15 LegendNANA
11:00 -9.1 -13.3 72 0.0 6 9 16.1 100.71   -14 LegendNANA
12:00 -6.6 -13.1 60 0.0 19 18 16.1 100.77   -13 LegendNANA
13:00 -6.6 -12.0 66 0.0 23 13 16.1 100.82   -12 LegendNANA
14:00 -6.6 -11.5 69 0.0 25 11 16.1 100.84   -12 LegendNANA
15:00 -6.6 -12.1 65 0.0 26 15 16.1 100.94   -13 LegendNANA
16:00 -8.6 -12.4 74 0.0 36 9 16.1 100.99   -13 LegendNANA
17:00 -7.2 -12.2 68 0.0 12 15 16.1 101.02   -13 LegendNANA
18:00 -8.4 -12.0 75 0.0 15 18 16.1 101.04   -15 LegendNANA
19:00 -8.7 -12.1 77 0.0 8 13 16.1 101.07   -15 LegendNANA
20:00 -8.9 -12.2 77 0.0 9 13 16.1 101.08   -15 LegendNANA
21:00 -9.2 -12.5 77 0.0 12 13 16.1 101.07   -15 LegendNANA
22:00 -10.0 -13.0 79 0.0 12 13 16.1 101.09   -16 LegendNANA
23:00 -10.6 -13.0 83 0.0 LegendMM 4 16.1 101.10   -13 LegendNANA

Notes on Data Quality.

Legend

  • E = Estimated
  • M = Missing
  • NA = Not Available*
  • [empty] = Indicates an unobserved value
Date modified: